Hancock, MI

12:04 AM EST on February 07, 2016 (GMT -0500)
Houghton County Memorial

Weather History for KCMX - May, 2013

Change the Weather History Date:

Thursday, May 9, 2013

  Actual Average Record
Temperature  
Mean Temperature 42 °F -  
Max Temperature 46 °F 55 °F 87 °F (1993)
Min Temperature 37 °F 37 °F 21 °F (1966)
Degree Days  
Heating Degree Days 24    
Moisture  
Dew Point 33 °F    
Average Humidity 75    
Maximum Humidity 93    
Minimum Humidity 49    
Precipitation  
Precipitation 0.05 in - - ()
Sea Level Pressure  
Sea Level Pressure 30.15 in    
Wind  
Wind Speed 8 mph (NE)    
Max Wind Speed 14 mph    
Max Gust Speed 22 mph    
Visibility 10 miles    
Events Rain    
Averages and records for this station are not official NWS values.
T = Trace of Precipitation, MM = Missing Value Source: NWS Daily Summary

Daily Weather History Graph

Daily Weather History Graph

Search for Another Location

Airport or City:

Trip Planner

Search our weather history database for the weather conditions in past years. The results will help you decide how hot, cold, wet, or windy it might be!

Date:

Astronomy

May. 09, 2013 Rise Set
Actual Time 6:25 AM EDT 9:16 PM EDT
Civil Twilight 5:50 AM EDT 9:51 PM EDT
Nautical Twilight 5:05 AM EDT 10:36 PM EDT
Astronomical Twilight 4:11 AM EDT 11:30 PM EDT
Moon 6:12 AM EDT (5/9) 9:10 PM EDT (5/9)
Length of Visible Light 16h 01m
Length of Day
14h 50m
Waning Crescent, 0% of the Moon is Illuminated
May 9
Waning Crescent
May 9
New
May 18
First Quarter
May 25
Full
May 31
Last Quarter

Hourly Weather History & Observations

Time (EDT) Temp. Windchill Dew Point Humidity Pressure Visibility Wind Dir Wind Speed Gust Speed Precip Events Conditions
12:53 AM 46.0 °F 42.5 °F 39.9 °F 79% 30.05 in 10.0 mi North 6.9 mph - N/A   Overcast
1:53 AM 46.4 °F - 39.2 °F 76% 30.03 in 10.0 mi Calm Calm - N/A   Clear
2:53 AM 46.4 °F 43.5 °F 39.2 °F 76% 30.02 in 10.0 mi ENE 5.8 mph - N/A   Overcast
3:53 AM 46.9 °F - 39.0 °F 74% 30.02 in 10.0 mi NNE 5.8 mph - N/A   Mostly Cloudy
4:53 AM 45.0 °F 41.2 °F 39.0 °F 80% 30.04 in 10.0 mi NE 6.9 mph - N/A   Overcast
5:53 AM 44.1 °F 40.1 °F 39.0 °F 82% 30.04 in 10.0 mi East 6.9 mph - 0.00 in Rain Light Rain
6:53 AM 43.0 °F 40.3 °F 37.9 °F 82% 30.07 in 10.0 mi NE 4.6 mph - 0.00 in Rain Light Rain
7:53 AM 39.9 °F 35.1 °F 37.0 °F 89% 30.10 in 10.0 mi NE 6.9 mph - 0.01 in Rain Light Rain
8:42 AM 39.2 °F 35.0 °F 35.6 °F 87% 30.11 in 10.0 mi NNE 5.8 mph - 0.01 in Rain Light Rain
8:53 AM 39.0 °F 33.4 °F 36.0 °F 89% 30.13 in 10.0 mi NE 8.1 mph - 0.02 in Rain Light Rain
9:53 AM 37.9 °F 32.1 °F 35.1 °F 89% 30.15 in 10.0 mi NNE 8.1 mph - 0.01 in   Overcast
10:10 AM 37.4 °F 31.4 °F 35.6 °F 93% 30.13 in 10.0 mi NE 8.1 mph - 0.00 in Rain Light Rain
10:53 AM 37.0 °F 29.8 °F 34.0 °F 89% 30.16 in 10.0 mi NE 10.4 mph - 0.01 in Rain Light Rain
11:00 AM 37.4 °F 30.3 °F 33.8 °F 87% 30.14 in 10.0 mi NE 10.4 mph - 0.00 in Rain Light Rain
11:53 AM 37.0 °F 29.3 °F 33.1 °F 86% 30.18 in 10.0 mi NE 11.5 mph - 0.00 in Rain Light Rain
12:05 PM 37.4 °F 31.4 °F 33.8 °F 87% 30.15 in 10.0 mi NE 8.1 mph - 0.00 in Rain Light Rain
12:12 PM 37.4 °F 32.8 °F 33.8 °F 87% 30.15 in 10.0 mi NE 5.8 mph - 0.00 in Rain Light Rain
12:49 PM 37.4 °F 32.1 °F 33.8 °F 87% 30.17 in 10.0 mi NE 6.9 mph - 0.00 in   Overcast
12:53 PM 37.4 °F 30.8 °F 33.8 °F 87% 30.17 in 10.0 mi ENE 9.2 mph - N/A   Overcast
1:53 PM 37.4 °F 30.3 °F 33.8 °F 87% 30.18 in 10.0 mi ENE 10.4 mph - N/A   Overcast
2:02 PM 37.4 °F 30.8 °F 33.8 °F 87% 30.18 in 10.0 mi NE 9.2 mph - N/A   Overcast
2:53 PM 37.9 °F 29.6 °F 30.9 °F 76% 30.21 in 10.0 mi ENE 13.8 mph 20.7 mph N/A   Overcast
3:16 PM 39.2 °F 32.0 °F 30.2 °F 70% 30.18 in 10.0 mi ENE 11.5 mph - N/A   Overcast
3:53 PM 41.0 °F 33.5 °F 30.9 °F 67% 30.21 in 10.0 mi ENE 13.8 mph - N/A   Overcast
4:53 PM 42.1 °F 35.2 °F 28.0 °F 58% 30.21 in 10.0 mi NE 12.7 mph 18.4 mph N/A   Overcast
5:53 PM 42.1 °F 34.9 °F 25.0 °F 51% 30.21 in 10.0 mi ENE 13.8 mph 21.9 mph N/A   Mostly Cloudy
6:53 PM 42.1 °F 35.2 °F 24.1 °F 49% 30.20 in 10.0 mi NE 12.7 mph 19.6 mph N/A   Scattered Clouds
7:53 PM 41.0 °F 34.7 °F 24.1 °F 51% 30.21 in 10.0 mi ENE 10.4 mph - N/A   Clear
8:53 PM 41.0 °F 35.2 °F 24.1 °F 51% 30.21 in 10.0 mi ENE 9.2 mph - N/A   Clear
9:53 PM 39.9 °F 33.9 °F 24.1 °F 53% 30.22 in 10.0 mi NE 9.2 mph - N/A   Clear
10:53 PM 39.9 °F 33.4 °F 24.1 °F 53% 30.22 in 10.0 mi NE 10.4 mph - N/A   Clear
11:53 PM 39.0 °F 32.3 °F 24.1 °F 55% 30.22 in 10.0 mi NE 10.4 mph - N/A   Clear